Location: Proctor
(47.8934°N, 114.3048°W)
Time: 20:38:53
(UTC+00:00)

Altair - All Passes

Search period start: 23 June 2024 00:00
Search period end: 03 July 2024 00:00
Orbit: 1502 x 1682 km, 47.2° (Epoch: 22 June)

Date Brightness Start Highest point End Pass type
(mag) Time Alt. Az. Time Alt. Az. Time Alt. Az.
23 Jun - 06:50:10 10° SSE 06:55:05 16° SE 07:00:02 10° E visible
23 Jun - 08:49:13 10° SW 08:57:53 48° SE 09:06:47 10° ENE visible
23 Jun - 10:52:43 10° WSW 11:02:01 83° SSE 11:11:41 10° E visible
23 Jun - 12:57:21 10° W 13:06:48 81° SSW 13:16:38 10° ESE daylight
23 Jun - 15:02:02 10° WNW 15:11:01 47° SW 15:20:18 10° SE daylight
23 Jun - 17:08:48 10° W 17:13:57 16° SW 17:19:13 10° SSW daylight
24 Jun - 06:25:53 10° SSE 06:30:04 14° SE 06:34:16 10° E visible
24 Jun - 08:24:13 10° SSW 08:32:46 45° SE 08:41:32 10° ENE visible
24 Jun - 10:27:33 10° WSW 10:36:49 81° SSE 10:46:26 10° E visible
24 Jun - 12:32:10 10° W 12:41:35 83° S 12:51:23 10° ESE daylight
24 Jun - 14:36:49 10° WNW 14:45:52 50° SSW 14:55:14 10° SE daylight
24 Jun - 16:43:10 10° W 16:48:54 18° SW 16:54:45 10° SSW daylight
25 Jun - 06:01:51 10° SE 06:05:04 12° ESE 06:08:17 10° ESE visible
25 Jun - 07:59:14 10° SSW 08:07:39 43° SE 08:16:16 10° ENE visible
25 Jun - 10:02:23 10° WSW 10:11:37 79° SSE 10:21:11 10° E visible
25 Jun - 12:06:58 10° W 12:16:22 84° S 12:26:08 10° ESE daylight
25 Jun - 14:11:36 10° WNW 14:20:43 53° SSW 14:30:08 10° SE daylight
25 Jun - 16:17:38 10° W 16:23:51 19° SW 16:30:12 10° S daylight
26 Jun - 05:38:27 10° SE 05:40:04 11° ESE 05:41:41 10° ESE visible
26 Jun - 07:34:17 10° SSW 07:42:33 40° SE 07:51:00 10° ENE visible
26 Jun - 09:37:13 10° WSW 09:46:26 77° SSE 09:55:57 10° E visible
26 Jun - 11:41:47 10° W 11:51:09 85° S 12:00:53 10° E daylight
26 Jun - 13:46:25 10° WNW 13:55:33 55° SSW 14:05:02 10° SE daylight
26 Jun - 15:52:10 10° W 15:58:46 21° SW 16:05:33 10° S daylight
27 Jun - 07:09:21 10° SSW 07:17:28 37° SE 07:25:43 10° ENE visible
27 Jun - 09:12:04 10° WSW 09:21:15 75° SSE 09:30:42 10° E visible
27 Jun - 11:16:35 10° W 11:25:56 86° S 11:35:38 10° E daylight
27 Jun - 13:21:13 10° WNW 13:30:23 58° SSW 13:39:54 10° SE daylight
27 Jun - 15:26:45 10° W 15:33:42 23° SW 15:40:51 10° S daylight
28 Jun - 06:44:26 10° SSW 06:52:23 35° SE 07:00:25 10° ENE visible
28 Jun - 08:46:56 10° WSW 08:56:03 73° SSE 09:05:28 10° ENE visible
28 Jun - 10:51:23 10° W 11:00:42 87° S 11:10:23 10° E visible
28 Jun - 12:56:01 10° WNW 13:05:13 61° SSW 13:14:45 10° SE daylight
28 Jun - 15:01:22 10° W 15:08:37 25° SW 15:16:06 10° S daylight
29 Jun - 06:19:34 10° SSW 06:27:18 32° SE 06:35:07 10° ENE visible
29 Jun - 08:21:48 10° WSW 08:30:54 70° SSE 08:40:14 10° ENE visible
29 Jun - 10:26:11 10° W 10:35:30 87° S 10:45:07 10° E visible
29 Jun - 12:30:50 10° WNW 12:40:02 64° SSW 12:49:36 10° SE daylight
29 Jun - 14:36:02 10° W 14:43:32 27° SW 14:51:17 10° S daylight
30 Jun - 05:54:43 10° S 06:02:14 30° SE 06:09:48 10° E visible
30 Jun - 07:56:40 10° WSW 08:05:44 68° SSE 08:15:00 10° ENE visible
30 Jun - 10:01:01 10° W 10:10:17 87° S 10:19:52 10° E visible
30 Jun - 12:05:38 10° WNW 12:14:52 66° SSW 12:24:25 10° SE daylight
30 Jun - 14:10:43 10° W 14:18:27 29° SW 14:26:26 10° S daylight
01 Jul - 05:29:54 10° S 05:37:10 27° SE 05:44:29 10° E visible
01 Jul - 07:31:33 10° SW 07:40:34 65° SSE 07:49:46 10° ENE visible
01 Jul - 09:35:49 10° W 09:45:04 87° S 09:54:37 10° E visible
01 Jul - 11:40:27 10° WNW 11:49:41 69° SSW 11:59:15 10° ESE daylight
01 Jul - 13:45:25 10° W 13:53:22 32° SW 14:01:32 10° SSE daylight
02 Jul - 05:05:08 10° S 05:12:07 25° SE 05:19:07 10° E visible
02 Jul - 07:06:27 10° SW 07:15:25 62° SSE 07:24:32 10° ENE visible
02 Jul - 09:10:37 10° W 09:19:52 87° S 09:29:22 10° E visible
02 Jul - 11:15:16 10° WNW 11:24:30 71° SSW 11:34:03 10° ESE daylight
02 Jul - 13:20:09 10° WNW 13:28:16 34° SW 13:36:38 10° SSE daylight
